Hourly Weather Primorsko

Today, 19 September, Saturday

Time Temperature Precipitation Wind Pressure Humidity
00:00 +19°C° 0 mm 6 mps 764 mmHg 77%
01:00 +19°C° 0 mm 6 mps 764 mmHg 72%
02:00 +19°C° 0 mm 6 mps 765 mmHg 67%
03:00 +17°C° 0 mm 6 mps 765 mmHg 66%
04:00 +17°C° 0 mm 6 mps 765 mmHg 64%
05:00 +17°C° 0 mm 7 mps 765 mmHg 63%
06:00 +18°C° 0 mm 7 mps 765 mmHg 62%
07:00 +18°C° 0 mm 7 mps 765 mmHg 61%
08:00 +20°C° 0 mm 8 mps 766 mmHg 60%
09:00 +21°C° 0 mm 8 mps 766 mmHg 58%
10:00 +21°C° 0 mm 8 mps 766 mmHg 55%
11:00 +22°C° 0 mm 7 mps 766 mmHg 53%
12:00 +22°C° 0 mm 7 mps 766 mmHg 53%
13:00 +22°C° 0 mm 7 mps 765 mmHg 52%
14:00 +22°C° 0 mm 7 mps 765 mmHg 52%
15:00 +21°C° 0 mm 6 mps 765 mmHg 54%
16:00 +20°C° 0 mm 6 mps 764 mmHg 55%
17:00 +20°C° 0 mm 6 mps 764 mmHg 57%
18:00 +17°C° 0 mm 5 mps 764 mmHg 64%
19:00 +16°C° 0 mm 5 mps 764 mmHg 70%
20:00 +15°C° 0 mm 5 mps 764 mmHg 77%
21:00 +15°C° 0 mm 4 mps 764 mmHg 78%
22:00 +14°C° 0 mm 4 mps 764 mmHg 79%
23:00 +14°C° 0 mm 4 mps 764 mmHg 80%

Tomorrow, 20 September, Sunday

Time Temperature Precipitation Wind Pressure Humidity
00:00 +15°C° 0.1 mm 4 mps 764 mmHg 80%
01:00 +15°C° 0.1 mm 4 mps 764 mmHg 80%
02:00 +15°C° 0.1 mm 4 mps 763 mmHg 80%
03:00 +15°C° 0.1 mm 4 mps 763 mmHg 80%
04:00 +15°C° 0.1 mm 5 mps 763 mmHg 80%
05:00 +15°C° 0.1 mm 5 mps 763 mmHg 80%
06:00 +16°C° 0.1 mm 5 mps 763 mmHg 78%
07:00 +16°C° 0.1 mm 5 mps 763 mmHg 77%
08:00 +17°C° 0.1 mm 5 mps 763 mmHg 76%
09:00 +17°C° 0.1 mm 5 mps 763 mmHg 74%
10:00 +19°C° 0.1 mm 6 mps 763 mmHg 72%
11:00 +20°C° 0.1 mm 6 mps 763 mmHg 70%
12:00 +20°C° 0 mm 6 mps 763 mmHg 67%
13:00 +21°C° 0 mm 6 mps 763 mmHg 63%
14:00 +22°C° 0 mm 6 mps 762 mmHg 60%
15:00 +22°C° 0 mm 6 mps 762 mmHg 61%
16:00 +21°C° 0 mm 6 mps 762 mmHg 62%
17:00 +21°C° 0 mm 6 mps 762 mmHg 64%
18:00 +20°C° 0 mm 6 mps 762 mmHg 68%
19:00 +19°C° 0 mm 6 mps 763 mmHg 72%
20:00 +17°C° 0 mm 5 mps 763 mmHg 76%
21:00 +17°C° 0 mm 5 mps 763 mmHg 78%
22:00 +18°C° 0 mm 4 mps 763 mmHg 80%
23:00 +18°C° 0 mm 4 mps 763 mmHg 82%

Day after tomorrow, 21 September, Monday

Time Temperature Precipitation Wind Pressure Humidity
00:00 +18°C° 0 mm 4 mps 763 mmHg 81%
01:00 +18°C° 0 mm 4 mps 762 mmHg 80%
02:00 +18°C° 0 mm 4 mps 762 mmHg 79%
03:00 +19°C° 0 mm 5 mps 762 mmHg 77%
04:00 +19°C° 0 mm 5 mps 762 mmHg 76%
05:00 +19°C° 0 mm 5 mps 762 mmHg 74%
06:00 +20°C° 0 mm 5 mps 762 mmHg 72%
07:00 +21°C° 0 mm 6 mps 762 mmHg 70%
08:00 +21°C° 0 mm 6 mps 762 mmHg 68%
09:00 +22°C° 0.1 mm 6 mps 762 mmHg 64%
10:00 +23°C° 0.1 mm 6 mps 762 mmHg 60%
11:00 +24°C° 0.1 mm 7 mps 762 mmHg 56%
12:00 +24°C° 0 mm 7 mps 762 mmHg 54%
13:00 +26°C° 0 mm 7 mps 762 mmHg 53%
14:00 +26°C° 0 mm 7 mps 762 mmHg 51%
15:00 +24°C° 0 mm 6 mps 762 mmHg 53%
16:00 +24°C° 0 mm 6 mps 762 mmHg 54%
17:00 +23°C° 0 mm 6 mps 761 mmHg 56%
18:00 +21°C° 0 mm 5 mps 762 mmHg 63%
19:00 +20°C° 0 mm 5 mps 762 mmHg 71%
20:00 +18°C° 0 mm 4 mps 762 mmHg 79%
21:00 +18°C° 0 mm 4 mps 763 mmHg 80%
22:00 +18°C° 0 mm 4 mps 763 mmHg 81%
23:00 +18°C° 0 mm 4 mps 763 mmHg 81%

22 September, Tuesday

Time Temperature Precipitation Wind Pressure Humidity
00:00 +17°C° 0 mm 3 mps 762 mmHg 82%
01:00 +17°C° 0 mm 3 mps 762 mmHg 83%
02:00 +17°C° 0 mm 3 mps 762 mmHg 84%
03:00 +16°C° 0 mm 3 mps 762 mmHg 85%
04:00 +16°C° 0 mm 3 mps 762 mmHg 86%
05:00 +16°C° 0 mm 3 mps 762 mmHg 87%
06:00 +17°C° 0 mm 3 mps 762 mmHg 81%
07:00 +18°C° 0 mm 3 mps 763 mmHg 75%
08:00 +20°C° 0 mm 3 mps 763 mmHg 68%
09:00 +21°C° 0 mm 3 mps 763 mmHg 61%
10:00 +23°C° 0 mm 4 mps 763 mmHg 54%
11:00 +26°C° 0 mm 4 mps 763 mmHg 47%
12:00 +26°C° 0 mm 5 mps 762 mmHg 47%
13:00 +26°C° 0 mm 5 mps 762 mmHg 47%
14:00 +27°C° 0 mm 5 mps 762 mmHg 48%
15:00 +26°C° 0 mm 5 mps 761 mmHg 52%
16:00 +25°C° 0 mm 4 mps 761 mmHg 56%
17:00 +23°C° 0 mm 4 mps 761 mmHg 60%
18:00 +21°C° 0 mm 4 mps 761 mmHg 68%
19:00 +19°C° 0 mm 3 mps 761 mmHg 75%
20:00 +17°C° 0 mm 2 mps 762 mmHg 83%
21:00 +17°C° 0 mm 2 mps 762 mmHg 83%
22:00 +16°C° 0 mm 2 mps 761 mmHg 83%
23:00 +16°C° 0 mm 1 mps 761 mmHg 84%

23 September, Wednesday

Time Temperature Precipitation Wind Pressure Humidity
00:00 +16°C° 0 mm 1 mps 761 mmHg 84%
01:00 +15°C° 0 mm 1 mps 761 mmHg 85%
02:00 +15°C° 0 mm 1 mps 761 mmHg 85%
03:00 +15°C° 0 mm 1 mps 761 mmHg 86%
04:00 +15°C° 0 mm 1 mps 761 mmHg 88%
05:00 +15°C° 0 mm 2 mps 761 mmHg 89%
06:00 +18°C° 0 mm 1 mps 761 mmHg 83%
07:00 +19°C° 0 mm 1 mps 761 mmHg 76%
08:00 +21°C° 0 mm 1 mps 760 mmHg 70%
09:00 +23°C° 0 mm 1 mps 760 mmHg 60%
10:00 +26°C° 0 mm 1 mps 760 mmHg 50%
11:00 +28°C° 0 mm 1 mps 760 mmHg 40%
12:00 +28°C° 0 mm 2 mps 760 mmHg 40%
13:00 +28°C° 0 mm 3 mps 759 mmHg 40%
14:00 +28°C° 0 mm 3 mps 759 mmHg 40%
15:00 +27°C° 0 mm 4 mps 759 mmHg 45%
16:00 +26°C° 0 mm 4 mps 758 mmHg 49%
17:00 +23°C° 0 mm 4 mps 758 mmHg 54%
18:00 +22°C° 0 mm 4 mps 758 mmHg 61%
19:00 +20°C° 0 mm 4 mps 758 mmHg 68%
20:00 +18°C° 0 mm 3 mps 759 mmHg 74%
21:00 +18°C° 0 mm 3 mps 759 mmHg 75%
22:00 +18°C° 0 mm 3 mps 759 mmHg 75%
23:00 +17°C° 0 mm 3 mps 759 mmHg 75%

24 September, Thursday

Time Temperature Precipitation Wind Pressure Humidity
00:00 +17°C° 0 mm 3 mps 758 mmHg 74%
01:00 +17°C° 0 mm 2 mps 758 mmHg 73%
02:00 +18°C° 0 mm 2 mps 758 mmHg 73%
03:00 +18°C° 0 mm 2 mps 758 mmHg 72%
04:00 +18°C° 0 mm 1 mps 757 mmHg 71%
05:00 +18°C° 0 mm 1 mps 757 mmHg 70%
06:00 +20°C° 0 mm 1 mps 757 mmHg 63%
07:00 +22°C° 0 mm 1 mps 758 mmHg 56%
08:00 +24°C° 0 mm 1 mps 758 mmHg 50%
09:00 +26°C° 0 mm 1 mps 758 mmHg 45%
10:00 +28°C° 0 mm 1 mps 757 mmHg 40%
11:00 +31°C° 0 mm 1 mps 757 mmHg 34%
12:00 +30°C° 0 mm 2 mps 757 mmHg 36%
13:00 +30°C° 0 mm 3 mps 757 mmHg 37%
14:00 +30°C° 0 mm 4 mps 756 mmHg 38%
15:00 +29°C° 0 mm 3 mps 756 mmHg 42%
16:00 +29°C° 0 mm 3 mps 756 mmHg 46%
17:00 +28°C° 0 mm 3 mps 756 mmHg 50%
18:00 +27°C° 0 mm 3 mps 756 mmHg 54%
19:00 +25°C° 0 mm 4 mps 756 mmHg 58%
20:00 +22°C° 0 mm 4 mps 756 mmHg 61%
21:00 +22°C° 0 mm 3 mps 756 mmHg 63%
22:00 +22°C° 0 mm 3 mps 756 mmHg 64%
23:00 +21°C° 0 mm 3 mps 756 mmHg 66%
Show more